Time,TemperatureF,DewpointF,PressureIn,WindDirection,WindDirectionDegrees,WindSpeedMPH,WindSpeedGustMPH,Humidity,HourlyPrecipIn,Conditions,Clouds,dailyrainin,SoftwareType,DateUTC
2013-06-15 00:04:00,73.1,67.3,29.98,NE,45,0.0,1.1,82,0.00,,,0.00,WUHU216HW,2013-06-15 04:04:00,
2013-06-15 00:09:00,73.1,67.3,29.98,NE,45,0.0,0.7,82,0.00,,,0.00,WUHU216HW,2013-06-15 04:09:00,
2013-06-15 00:14:00,73.1,67.6,29.98,NE,45,1.1,1.1,83,0.00,,,0.00,WUHU216HW,2013-06-15 04:14:00,
2013-06-15 00:19:00,73.1,67.6,29.98,NE,45,0.9,1.3,83,0.00,,,0.00,WUHU216HW,2013-06-15 04:19:00,
2013-06-15 00:24:00,72.9,67.4,29.98,NE,45,0.7,1.3,83,0.00,,,0.00,WUHU216HW,2013-06-15 04:24:00,
2013-06-15 00:29:00,72.7,67.2,29.98,NE,45,0.7,1.1,83,0.00,,,0.00,WUHU216HW,2013-06-15 04:29:00,
2013-06-15 00:34:00,72.7,67.2,29.98,NE,45,1.6,1.6,83,0.00,,,0.00,WUHU216HW,2013-06-15 04:34:00,
2013-06-15 00:39:00,72.7,67.2,29.98,NE,45,0.4,1.8,83,0.00,,,0.00,WUHU216HW,2013-06-15 04:39:00,
2013-06-15 00:44:00,72.5,67.1,29.98,NE,45,0.9,1.8,83,0.00,,,0.00,WUHU216HW,2013-06-15 04:44:00,
2013-06-15 00:49:00,72.4,66.9,29.99,NNE,23,0.9,1.1,83,0.00,,,0.00,WUHU216HW,2013-06-15 04:49:00,
2013-06-15 00:54:00,72.4,67.2,29.99,NNE,23,0.4,1.1,84,0.00,,,0.00,WUHU216HW,2013-06-15 04:54:00,
2013-06-15 00:59:00,72.4,66.9,29.99,NE,45,0.4,1.3,83,0.00,,,0.00,WUHU216HW,2013-06-15 04:59:00,
2013-06-15 01:04:00,72.2,67.1,29.99,NE,45,0.4,1.3,84,0.00,,,0.00,WUHU216HW,2013-06-15 05:04:00,
2013-06-15 01:09:00,72.0,66.9,29.99,NE,45,0.9,1.1,84,0.00,,,0.00,WUHU216HW,2013-06-15 05:09:00,
2013-06-15 01:14:00,72.0,66.9,29.99,NE,45,0.7,1.1,84,0.00,,,0.00,WUHU216HW,2013-06-15 05:14:00,
2013-06-15 01:19:00,72.0,66.9,29.98,NE,45,1.3,1.8,84,0.00,,,0.00,WUHU216HW,2013-06-15 05:19:00,
2013-06-15 01:24:00,71.8,66.7,29.99,NE,45,0.4,1.8,84,0.00,,,0.00,WUHU216HW,2013-06-15 05:24:00,
2013-06-15 01:29:00,71.6,66.5,29.99,NNE,23,0.7,1.8,84,0.00,,,0.00,WUHU216HW,2013-06-15 05:29:00,
2013-06-15 01:34:00,71.6,66.5,29.99,NNE,23,0.4,1.3,84,0.00,,,0.00,WUHU216HW,2013-06-15 05:34:00,
2013-06-15 01:39:00,71.6,66.5,29.99,NNE,23,0.7,1.1,84,0.00,,,0.00,WUHU216HW,2013-06-15 05:39:00,
2013-06-15 01:44:00,71.5,66.7,29.99,NNE,23,0.9,1.1,85,0.00,,,0.00,WUHU216HW,2013-06-15 05:44:00,
2013-06-15 01:49:00,71.3,66.5,29.99,NE,45,1.6,2.0,85,0.00,,,0.00,WUHU216HW,2013-06-15 05:49:00,
2013-06-15 01:54:00,71.3,66.5,29.99,NE,45,0.0,2.0,85,0.00,,,0.00,WUHU216HW,2013-06-15 05:54:00,
2013-06-15 01:59:00,71.1,66.3,29.99,NE,45,0.9,1.8,85,0.00,,,0.00,WUHU216HW,2013-06-15 05:59:00,
2013-06-15 02:04:00,71.1,66.3,30.00,NE,45,0.4,1.8,85,0.00,,,0.00,WUHU216HW,2013-06-15 06:04:00,
2013-06-15 02:09:00,71.1,66.3,30.00,NE,45,0.0,1.8,85,0.00,,,0.00,WUHU216HW,2013-06-15 06:09:00,
2013-06-15 02:14:00,70.9,66.2,30.00,NE,45,0.7,1.1,85,0.00,,,0.00,WUHU216HW,2013-06-15 06:14:00,
2013-06-15 02:19:00,70.9,66.2,30.00,NE,45,0.2,1.1,85,0.00,,,0.00,WUHU216HW,2013-06-15 06:19:00,
2013-06-15 02:24:00,70.9,66.2,30.00,NE,45,0.0,1.1,85,0.00,,,0.00,WUHU216HW,2013-06-15 06:24:00,
2013-06-15 02:29:00,70.7,66.0,29.99,NE,45,0.4,1.1,85,0.00,,,0.00,WUHU216HW,2013-06-15 06:29:00,
2013-06-15 02:34:00,70.6,66.2,30.00,NE,45,0.0,1.1,86,0.00,,,0.00,WUHU216HW,2013-06-15 06:34:00,
2013-06-15 02:39:00,70.6,66.2,30.00,NE,45,0.7,1.3,86,0.00,,,0.00,WUHU216HW,2013-06-15 06:39:00,
2013-06-15 02:44:00,70.4,66.0,30.00,NNE,23,0.9,1.3,86,0.00,,,0.00,WUHU216HW,2013-06-15 06:44:00,
2013-06-15 02:49:00,70.4,66.0,30.00,NE,45,0.4,1.1,86,0.00,,,0.00,WUHU216HW,2013-06-15 06:49:00,
2013-06-15 02:54:00,70.4,66.0,30.00,NNE,23,0.7,0.9,86,0.00,,,0.00,WUHU216HW,2013-06-15 06:54:00,
2013-06-15 02:59:00,70.4,66.0,30.00,NNE,23,0.7,1.3,86,0.00,,,0.00,WUHU216HW,2013-06-15 06:59:00,
2013-06-15 03:04:00,70.2,65.8,30.00,NNE,23,1.1,1.3,86,0.00,,,0.00,WUHU216HW,2013-06-15 07:04:00,
2013-06-15 03:09:00,70.2,65.8,29.99,North,0,1.1,1.8,86,0.00,,,0.00,WUHU216HW,2013-06-15 07:09:00,
2013-06-15 03:14:00,70.2,65.8,29.99,North,0,0.2,1.8,86,0.00,,,0.00,WUHU216HW,2013-06-15 07:14:00,
2013-06-15 03:19:00,70.2,65.8,29.99,NNE,23,0.9,2.0,86,0.00,,,0.00,WUHU216HW,2013-06-15 07:19:00,
2013-06-15 03:24:00,70.0,65.6,30.00,NE,45,1.3,2.0,86,0.00,,,0.00,WUHU216HW,2013-06-15 07:24:00,
2013-06-15 03:29:00,70.0,65.6,30.00,NNE,23,0.4,1.8,86,0.00,,,0.00,WUHU216HW,2013-06-15 07:29:00,
2013-06-15 03:34:00,69.8,65.4,30.00,NE,45,1.3,1.8,86,0.00,,,0.00,WUHU216HW,2013-06-15 07:34:00,
2013-06-15 03:39:00,69.8,65.4,30.00,NE,45,0.0,1.3,86,0.00,,,0.00,WUHU216HW,2013-06-15 07:39:00,
2013-06-15 03:44:00,69.8,65.4,30.00,NE,45,0.2,1.3,86,0.00,,,0.00,WUHU216HW,2013-06-15 07:44:00,
2013-06-15 03:49:00,69.8,65.8,30.00,NNE,23,0.7,1.1,87,0.00,,,0.00,WUHU216HW,2013-06-15 07:49:00,
2013-06-15 03:54:00,69.7,65.3,30.00,NNE,23,0.0,1.1,86,0.00,,,0.00,WUHU216HW,2013-06-15 07:54:00,
2013-06-15 03:59:00,69.7,65.6,30.00,NNE,23,0.0,0.7,87,0.00,,,0.00,WUHU216HW,2013-06-15 07:59:00,
2013-06-15 04:04:00,69.5,65.4,30.00,NNE,23,0.0,0.4,87,0.00,,,0.00,WUHU216HW,2013-06-15 08:04:00,
2013-06-15 04:09:00,69.5,65.4,30.01,NNE,23,0.7,0.7,87,0.00,,,0.00,WUHU216HW,2013-06-15 08:09:00,
2013-06-15 04:14:00,69.3,65.3,30.00,NNE,23,0.0,0.7,87,0.00,,,0.00,WUHU216HW,2013-06-15 08:14:00,
2013-06-15 04:19:00,69.3,65.3,30.01,NNE,23,0.0,0.7,87,0.00,,,0.00,WUHU216HW,2013-06-15 08:19:00,
2013-06-15 04:24:00,69.3,65.3,30.01,NNE,23,0.0,0.0,87,0.00,,,0.00,WUHU216HW,2013-06-15 08:24:00,
2013-06-15 04:29:00,69.3,65.3,30.00,NNE,23,0.0,0.0,87,0.00,,,0.00,WUHU216HW,2013-06-15 08:29:00,
2013-06-15 04:34:00,69.1,65.4,30.01,NNE,23,0.0,0.0,88,0.00,,,0.00,WUHU216HW,2013-06-15 08:34:00,
2013-06-15 04:39:00,69.1,65.4,30.01,NNE,23,0.9,0.9,88,0.00,,,0.00,WUHU216HW,2013-06-15 08:39:00,
2013-06-15 04:44:00,68.8,65.1,30.01,NE,45,0.7,1.1,88,0.00,,,0.00,WUHU216HW,2013-06-15 08:44:00,
2013-06-15 04:49:00,68.8,65.1,30.00,NE,45,0.2,1.1,88,0.00,,,0.00,WUHU216HW,2013-06-15 08:49:00,
2013-06-15 04:54:00,68.6,64.9,30.00,NE,45,0.0,1.1,88,0.00,,,0.00,WUHU216HW,2013-06-15 08:54:00,
2013-06-15 04:59:00,68.6,64.9,30.00,NE,45,0.0,0.4,88,0.00,,,0.00,WUHU216HW,2013-06-15 08:59:00,
2013-06-15 05:04:00,68.4,64.7,30.00,NE,45,0.9,1.1,88,0.00,,,0.00,WUHU216HW,2013-06-15 09:04:00,
2013-06-15 05:09:00,68.4,64.7,30.01,NE,45,0.4,1.3,88,0.00,,,0.00,WUHU216HW,2013-06-15 09:09:00,
2013-06-15 05:14:00,68.4,64.7,30.01,NE,45,0.0,1.3,88,0.00,,,0.00,WUHU216HW,2013-06-15 09:14:00,
2013-06-15 05:19:00,68.4,64.7,30.01,NE,45,0.7,1.1,88,0.00,,,0.00,WUHU216HW,2013-06-15 09:19:00,
2013-06-15 05:24:00,68.4,64.7,30.01,NE,45,0.4,1.1,88,0.00,,,0.00,WUHU216HW,2013-06-15 09:24:00,
2013-06-15 05:29:00,68.4,65.0,30.01,NE,45,0.4,1.1,89,0.00,,,0.00,WUHU216HW,2013-06-15 09:29:00,
2013-06-15 05:34:00,68.2,64.8,30.01,NE,45,0.4,1.1,89,0.00,,,0.00,WUHU216HW,2013-06-15 09:34:00,
2013-06-15 05:39:00,68.2,64.8,30.02,NE,45,0.0,1.1,89,0.00,,,0.00,WUHU216HW,2013-06-15 09:39:00,
2013-06-15 05:44:00,68.2,64.8,30.01,NE,45,1.1,1.3,89,0.00,,,0.00,WUHU216HW,2013-06-15 09:44:00,
2013-06-15 05:49:00,68.0,64.6,30.02,NE,45,0.9,1.6,89,0.00,,,0.00,WUHU216HW,2013-06-15 09:49:00,
2013-06-15 05:54:00,68.0,64.6,30.01,NE,45,0.7,1.6,89,0.00,,,0.00,WUHU216HW,2013-06-15 09:54:00,
2013-06-15 05:59:00,68.0,64.6,30.01,NNE,23,0.0,1.1,89,0.00,,,0.00,WUHU216HW,2013-06-15 09:59:00,
2013-06-15 06:04:00,68.0,64.6,30.02,NNE,23,0.0,1.1,89,0.00,,,0.00,WUHU216HW,2013-06-15 10:04:00,
2013-06-15 06:09:00,68.0,64.6,30.02,NNE,23,0.0,1.1,89,0.00,,,0.00,WUHU216HW,2013-06-15 10:09:00,
2013-06-15 06:14:00,68.0,64.6,30.02,NNE,23,0.0,1.1,89,0.00,,,0.00,WUHU216HW,2013-06-15 10:14:00,
2013-06-15 06:19:00,67.9,64.4,30.02,NNE,23,0.0,0.0,89,0.00,,,0.00,WUHU216HW,2013-06-15 10:19:00,
2013-06-15 06:24:00,67.9,64.4,30.02,NNE,23,0.0,0.4,89,0.00,,,0.00,WUHU216HW,2013-06-15 10:24:00,
2013-06-15 06:29:00,67.9,64.4,30.02,NNE,23,0.4,0.4,89,0.00,,,0.00,WUHU216HW,2013-06-15 10:29:00,
2013-06-15 06:34:00,67.9,64.8,30.03,NNE,23,0.0,0.4,90,0.00,,,0.00,WUHU216HW,2013-06-15 10:34:00,
2013-06-15 06:39:00,67.7,64.6,30.03,NNE,23,0.0,0.4,90,0.00,,,0.00,WUHU216HW,2013-06-15 10:39:00,
2013-06-15 06:44:00,67.7,64.6,30.03,NNE,23,0.4,0.7,90,0.00,,,0.00,WUHU216HW,2013-06-15 10:44:00,
2013-06-15 06:49:00,67.7,64.6,30.03,NNE,23,0.0,0.7,90,0.00,,,0.00,WUHU216HW,2013-06-15 10:49:00,
2013-06-15 06:54:00,67.7,64.6,30.03,NNE,23,0.0,0.9,90,0.00,,,0.00,WUHU216HW,2013-06-15 10:54:00,
2013-06-15 06:59:00,67.9,64.8,30.03,NNE,23,0.0,0.9,90,0.00,,,0.00,WUHU216HW,2013-06-15 10:59:00,
2013-06-15 07:04:00,68.0,65.0,30.04,North,0,0.0,0.2,90,0.00,,,0.00,WUHU216HW,2013-06-15 11:04:00,
2013-06-15 07:09:00,68.2,65.2,30.04,North,0,0.0,0.0,90,0.00,,,0.00,WUHU216HW,2013-06-15 11:09:00,
2013-06-15 07:14:00,68.2,65.2,30.04,NNE,23,0.9,1.1,90,0.00,,,0.00,WUHU216HW,2013-06-15 11:14:00,
2013-06-15 07:19:00,68.4,65.3,30.03,NNE,23,0.9,1.1,90,0.00,,,0.00,WUHU216HW,2013-06-15 11:19:00,
2013-06-15 07:24:00,68.6,65.5,30.04,North,0,0.0,1.1,90,0.00,,,0.00,WUHU216HW,2013-06-15 11:24:00,
2013-06-15 07:29:00,68.8,65.7,30.04,North,0,0.0,0.4,90,0.00,,,0.00,WUHU216HW,2013-06-15 11:29:00,
2013-06-15 07:34:00,69.1,66.3,30.04,North,0,0.0,0.0,91,0.00,,,0.00,WUHU216HW,2013-06-15 11:34:00,
2013-06-15 07:39:00,69.3,66.2,30.05,North,0,0.0,0.0,90,0.00,,,0.00,WUHU216HW,2013-06-15 11:39:00,
2013-06-15 07:44:00,69.7,66.6,30.05,North,0,0.0,0.0,90,0.00,,,0.00,WUHU216HW,2013-06-15 11:44:00,
2013-06-15 07:49:00,70.0,67.0,30.05,North,0,0.0,0.0,90,0.00,,,0.00,WUHU216HW,2013-06-15 11:49:00,
2013-06-15 07:54:00,70.4,67.3,30.05,NE,45,0.0,0.7,90,0.00,,,0.00,WUHU216HW,2013-06-15 11:54:00,
2013-06-15 07:59:00,70.9,67.5,30.06,NE,45,0.0,0.7,89,0.00,,,0.00,WUHU216HW,2013-06-15 11:59:00,
2013-06-15 08:04:00,71.3,67.9,30.06,NE,45,0.0,0.0,89,0.00,,,0.00,WUHU216HW,2013-06-15 12:04:00,
2013-06-15 08:09:00,71.6,67.9,30.06,NE,45,0.0,0.0,88,0.00,,,0.00,WUHU216HW,2013-06-15 12:09:00,
2013-06-15 08:14:00,72.0,68.2,30.06,NE,45,0.2,1.3,88,0.00,,,0.00,WUHU216HW,2013-06-15 12:14:00,
2013-06-15 08:19:00,72.5,68.8,30.07,NE,45,0.0,1.3,88,0.00,,,0.00,WUHU216HW,2013-06-15 12:19:00,
2013-06-15 08:24:00,72.9,68.9,30.07,NE,45,0.4,2.0,87,0.00,,,0.00,WUHU216HW,2013-06-15 12:24:00,
2013-06-15 08:29:00,73.6,69.6,30.07,SE,135,0.2,2.0,87,0.00,,,0.00,WUHU216HW,2013-06-15 12:29:00,
2013-06-15 08:34:00,74.0,69.6,30.07,NNE,23,2.0,2.0,86,0.00,,,0.00,WUHU216HW,2013-06-15 12:34:00,
2013-06-15 08:39:00,74.5,69.8,30.08,SSE,158,0.0,2.0,85,0.00,,,0.00,WUHU216HW,2013-06-15 12:39:00,
2013-06-15 08:44:00,75.1,69.9,30.08,NE,45,1.3,2.0,84,0.00,,,0.00,WUHU216HW,2013-06-15 12:44:00,
2013-06-15 08:49:00,75.4,69.9,30.08,NNE,23,1.1,2.5,83,0.00,,,0.00,WUHU216HW,2013-06-15 12:49:00,
2013-06-15 08:54:00,75.8,70.3,30.08,ENE,68,1.1,3.4,83,0.00,,,0.00,WUHU216HW,2013-06-15 12:54:00,
2013-06-15 08:59:00,76.3,70.5,30.08,SE,135,1.6,3.4,82,0.00,,,0.00,WUHU216HW,2013-06-15 12:59:00,
2013-06-15 09:04:00,76.9,70.6,30.08,ESE,113,0.7,2.2,81,0.00,,,0.00,WUHU216HW,2013-06-15 13:04:00,
2013-06-15 09:09:00,77.4,70.7,30.09,ESE,113,0.9,2.5,80,0.00,,,0.00,WUHU216HW,2013-06-15 13:09:00,
2013-06-15 09:14:00,77.8,70.3,30.09,SE,135,0.7,4.0,78,0.00,,,0.00,WUHU216HW,2013-06-15 13:14:00,
2013-06-15 09:19:00,78.1,70.7,30.09,SSE,158,1.8,4.0,78,0.00,,,0.00,WUHU216HW,2013-06-15 13:19:00,
2013-06-15 09:24:00,78.7,70.4,30.09,NE,45,1.8,4.3,76,0.00,,,0.00,WUHU216HW,2013-06-15 13:24:00,
2013-06-15 09:29:00,79.0,70.7,30.10,East,90,0.4,4.3,76,0.00,,,0.00,WUHU216HW,2013-06-15 13:29:00,
2013-06-15 09:34:00,79.4,70.4,30.10,East,90,0.9,9.6,74,0.00,,,0.00,WUHU216HW,2013-06-15 13:34:00,
2013-06-15 09:39:00,79.6,69.8,30.10,SE,135,1.3,9.6,72,0.00,,,0.00,WUHU216HW,2013-06-15 13:39:00,
2013-06-15 09:44:00,79.9,70.1,30.10,East,90,1.6,6.7,72,0.00,,,0.00,WUHU216HW,2013-06-15 13:44:00,
2013-06-15 09:49:00,80.3,69.2,30.10,South,180,8.1,8.1,69,0.00,,,0.00,WUHU216HW,2013-06-15 13:49:00,
2013-06-15 09:54:00,80.5,68.9,30.10,SSE,158,1.8,8.1,68,0.00,,,0.00,WUHU216HW,2013-06-15 13:54:00,
2013-06-15 09:59:00,81.0,69.5,30.10,SE,135,1.3,8.1,68,0.00,,,0.00,WUHU216HW,2013-06-15 13:59:00,
2013-06-15 10:04:00,81.2,68.2,30.10,SE,135,1.8,6.9,65,0.00,,,0.00,WUHU216HW,2013-06-15 14:04:00,
2013-06-15 10:09:00,81.7,67.9,30.10,ENE,68,1.8,4.7,63,0.00,,,0.00,WUHU216HW,2013-06-15 14:09:00,
2013-06-15 10:14:00,81.9,67.2,30.10,SE,135,3.4,4.7,61,0.00,,,0.00,WUHU216HW,2013-06-15 14:14:00,
2013-06-15 10:19:00,82.1,67.2,30.10,ESE,113,1.8,6.9,61,0.00,,,0.00,WUHU216HW,2013-06-15 14:19:00,
2013-06-15 10:24:00,82.6,67.3,30.10,NNE,23,2.5,6.9,60,0.00,,,0.00,WUHU216HW,2013-06-15 14:24:00,
2013-06-15 10:29:00,83.2,67.3,30.10,South,180,3.4,5.4,59,0.00,,,0.00,WUHU216HW,2013-06-15 14:29:00,
2013-06-15 10:34:00,82.6,66.8,30.10,East,90,0.4,5.4,59,0.00,,,0.00,WUHU216HW,2013-06-15 14:34:00,
2013-06-15 10:39:00,82.6,67.8,30.10,East,90,1.3,4.5,61,0.00,,,0.00,WUHU216HW,2013-06-15 14:39:00,
2013-06-15 10:44:00,82.8,67.5,30.10,ENE,68,2.5,3.8,60,0.00,,,0.00,WUHU216HW,2013-06-15 14:44:00,
2013-06-15 10:49:00,83.3,67.5,30.10,SSE,158,4.3,4.3,59,0.00,,,0.00,WUHU216HW,2013-06-15 14:49:00,
2013-06-15 10:54:00,83.5,67.1,30.09,SSE,158,1.8,4.7,58,0.00,,,0.00,WUHU216HW,2013-06-15 14:54:00,
2013-06-15 10:59:00,83.9,67.5,30.10,NE,45,3.4,4.7,58,0.00,,,0.00,WUHU216HW,2013-06-15 14:59:00,
2013-06-15 11:04:00,84.6,68.2,30.09,SSE,158,4.5,4.5,58,0.00,,,0.00,WUHU216HW,2013-06-15 15:04:00,
2013-06-15 11:09:00,85.0,67.0,30.10,SSE,158,5.4,5.4,55,0.00,,,0.00,WUHU216HW,2013-06-15 15:09:00,
2013-06-15 11:14:00,85.3,66.8,30.10,East,90,1.1,6.3,54,0.00,,,0.00,WUHU216HW,2013-06-15 15:14:00,
2013-06-15 11:19:00,85.5,67.0,30.10,ESE,113,0.9,6.3,54,0.00,,,0.00,WUHU216HW,2013-06-15 15:19:00,
2013-06-15 11:25:00,86.2,68.1,30.10,East,90,2.0,4.7,55,0.00,,,0.00,WUHU216HW,2013-06-15 15:25:00,
2013-06-15 11:30:00,86.8,68.1,30.10,SE,135,1.6,4.0,54,0.00,,,0.00,WUHU216HW,2013-06-15 15:30:00,
2013-06-15 11:35:00,86.8,67.6,30.10,SE,135,2.0,3.1,53,0.00,,,0.00,WUHU216HW,2013-06-15 15:35:00,
2013-06-15 11:40:00,86.8,66.5,30.10,ESE,113,4.0,4.0,51,0.00,,,0.00,WUHU216HW,2013-06-15 15:40:00,
2013-06-15 11:45:00,86.4,66.7,30.10,SSW,203,1.8,4.0,52,0.00,,,0.00,WUHU216HW,2013-06-15 15:45:00,
2013-06-15 11:50:00,85.5,66.4,30.10,ENE,68,1.8,6.5,53,0.00,,,0.00,WUHU216HW,2013-06-15 15:50:00,
2013-06-15 11:55:00,85.9,66.8,30.10,South,180,1.8,6.5,53,0.00,,,0.00,WUHU216HW,2013-06-15 15:55:00,
2013-06-15 12:00:00,86.0,66.9,30.10,SE,135,2.2,4.3,53,0.00,,,0.00,WUHU216HW,2013-06-15 16:00:00,
2013-06-15 12:05:00,86.2,66.1,30.10,SE,135,0.4,3.4,51,0.00,,,0.00,WUHU216HW,2013-06-15 16:05:00,
2013-06-15 12:10:00,86.8,66.5,30.10,South,180,1.1,3.4,51,0.00,,,0.00,WUHU216HW,2013-06-15 16:10:00,
2013-06-15 12:15:00,87.5,67.1,30.10,East,90,1.3,3.6,51,0.00,,,0.00,WUHU216HW,2013-06-15 16:15:00,
2013-06-15 12:20:00,87.7,66.2,30.10,SSE,158,2.0,6.3,49,0.00,,,0.00,WUHU216HW,2013-06-15 16:20:00,
2013-06-15 12:25:00,87.7,67.3,30.10,East,90,2.7,7.6,51,0.00,,,0.00,WUHU216HW,2013-06-15 16:25:00,
2013-06-15 12:30:00,88.2,67.3,30.10,NE,45,2.0,7.6,50,0.00,,,0.00,WUHU216HW,2013-06-15 16:30:00,
2013-06-15 12:35:00,88.6,66.3,30.10,South,180,1.1,4.7,48,0.00,,,0.00,WUHU216HW,2013-06-15 16:35:00,
2013-06-15 12:40:00,88.7,67.8,30.09,ESE,113,3.8,3.8,50,0.00,,,0.00,WUHU216HW,2013-06-15 16:40:00,
2013-06-15 12:45:00,89.1,66.8,30.09,ESE,113,2.5,5.4,48,0.00,,,0.00,WUHU216HW,2013-06-15 16:45:00,
2013-06-15 12:50:00,88.9,66.0,30.09,NE,45,2.5,5.4,47,0.00,,,0.00,WUHU216HW,2013-06-15 16:50:00,
2013-06-15 12:55:00,89.1,65.5,30.09,South,180,2.5,4.5,46,0.00,,,0.00,WUHU216HW,2013-06-15 16:55:00,
2013-06-15 13:00:00,89.3,66.3,30.09,SSE,158,5.8,6.9,47,0.00,,,0.00,WUHU216HW,2013-06-15 17:00:00,
2013-06-15 13:05:00,88.9,66.7,30.09,SSW,203,6.3,6.9,48,0.00,,,0.00,WUHU216HW,2013-06-15 17:05:00,
2013-06-15 13:10:00,89.1,66.2,30.09,ESE,113,1.8,6.3,47,0.00,,,0.00,WUHU216HW,2013-06-15 17:10:00,
2013-06-15 13:15:00,87.8,65.7,30.09,ENE,68,2.5,6.3,48,0.00,,,0.00,WUHU216HW,2013-06-15 17:15:00,
2013-06-15 13:20:00,88.2,66.7,30.09,ESE,113,1.1,5.1,49,0.00,,,0.00,WUHU216HW,2013-06-15 17:20:00,
2013-06-15 13:25:00,89.1,67.4,30.09,ESE,113,1.1,5.1,49,0.00,,,0.00,WUHU216HW,2013-06-15 17:25:00,
2013-06-15 13:30:00,88.6,67.0,30.09,ESE,113,1.6,5.6,49,0.00,,,0.00,WUHU216HW,2013-06-15 17:30:00,
2013-06-15 13:35:00,88.9,68.0,30.09,ESE,113,1.3,5.6,50,0.00,,,0.00,WUHU216HW,2013-06-15 17:35:00,
2013-06-15 13:40:00,89.6,67.3,30.09,SSE,158,2.7,7.6,48,0.00,,,0.00,WUHU216HW,2013-06-15 17:40:00,
2013-06-15 13:45:00,88.4,66.8,30.09,ESE,113,1.6,7.6,49,0.00,,,0.00,WUHU216HW,2013-06-15 17:45:00,
2013-06-15 13:50:00,87.7,66.8,30.09,NNE,23,2.5,6.0,50,0.00,,,0.00,WUHU216HW,2013-06-15 17:50:00,
2013-06-15 13:55:00,88.7,66.5,30.09,East,90,1.8,4.3,48,0.00,,,0.00,WUHU216HW,2013-06-15 17:55:00,
2013-06-15 14:00:00,88.2,66.7,30.09,East,90,1.3,8.9,49,0.00,,,0.00,WUHU216HW,2013-06-15 18:00:00,
2013-06-15 14:05:00,87.5,66.6,30.08,ESE,113,1.6,8.9,50,0.00,,,0.00,WUHU216HW,2013-06-15 18:05:00,
2013-06-15 14:10:00,87.7,67.3,30.08,South,180,5.4,5.4,51,0.00,,,0.00,WUHU216HW,2013-06-15 18:10:00,
2013-06-15 14:15:00,87.7,67.3,30.08,SW,225,1.6,5.4,51,0.00,,,0.00,WUHU216HW,2013-06-15 18:15:00,
2013-06-15 14:20:00,88.6,67.6,30.08,ESE,113,1.3,5.4,50,0.00,,,0.00,WUHU216HW,2013-06-15 18:20:00,
2013-06-15 14:25:00,88.7,68.3,30.08,ESE,113,2.5,6.0,51,0.00,,,0.00,WUHU216HW,2013-06-15 18:25:00,
2013-06-15 14:30:00,88.2,69.0,30.08,ESE,113,2.9,6.0,53,0.00,,,0.00,WUHU216HW,2013-06-15 18:30:00,
2013-06-15 14:35:00,86.9,67.8,30.08,ENE,68,2.0,7.2,53,0.00,,,0.00,WUHU216HW,2013-06-15 18:35:00,
2013-06-15 14:40:00,86.9,68.8,30.08,SSE,158,6.0,7.2,55,0.00,,,0.00,WUHU216HW,2013-06-15 18:40:00,
2013-06-15 14:45:00,87.8,69.1,30.08,East,90,2.0,6.3,54,0.00,,,0.00,WUHU216HW,2013-06-15 18:45:00,
2013-06-15 14:50:00,88.2,69.0,30.08,ESE,113,3.6,10.1,53,0.00,,,0.00,WUHU216HW,2013-06-15 18:50:00,
2013-06-15 14:55:00,87.1,68.4,30.08,East,90,1.6,10.1,54,0.00,,,0.00,WUHU216HW,2013-06-15 18:55:00,
2013-06-15 15:00:00,86.0,67.4,30.08,ENE,68,1.6,4.7,54,0.00,,,0.00,WUHU216HW,2013-06-15 19:00:00,
2013-06-15 15:05:00,86.0,68.5,30.08,SE,135,1.8,4.9,56,0.00,,,0.00,WUHU216HW,2013-06-15 19:05:00,
2013-06-15 15:10:00,86.2,68.1,30.08,ENE,68,4.3,5.1,55,0.00,,,0.00,WUHU216HW,2013-06-15 19:10:00,
2013-06-15 15:15:00,86.6,68.5,30.08,East,90,1.8,5.1,55,0.00,,,0.00,WUHU216HW,2013-06-15 19:15:00,
2013-06-15 15:20:00,86.6,68.5,30.08,NE,45,0.7,4.7,55,0.00,,,0.00,WUHU216HW,2013-06-15 19:20:00,
2013-06-15 15:25:00,86.9,68.3,30.08,NE,45,3.6,3.6,54,0.00,,,0.00,WUHU216HW,2013-06-15 19:25:00,
2013-06-15 15:30:00,87.1,68.9,30.08,SSE,158,5.8,6.5,55,0.00,,,0.00,WUHU216HW,2013-06-15 19:30:00,
2013-06-15 15:35:00,86.9,68.8,30.08,SE,135,2.7,6.5,55,0.00,,,0.00,WUHU216HW,2013-06-15 19:35:00,
2013-06-15 15:40:00,86.6,69.0,30.08,SE,135,4.7,9.2,56,0.00,,,0.00,WUHU216HW,2013-06-15 19:40:00,
2013-06-15 15:45:00,86.9,69.8,30.08,SE,135,3.4,9.2,57,0.00,,,0.00,WUHU216HW,2013-06-15 19:45:00,
2013-06-15 15:50:00,87.5,69.3,30.08,NE,45,2.7,7.6,55,0.00,,,0.00,WUHU216HW,2013-06-15 19:50:00,
2013-06-15 15:55:00,86.4,67.8,30.08,SE,135,1.8,7.6,54,0.00,,,0.00,WUHU216HW,2013-06-15 19:55:00,
2013-06-15 16:00:00,85.1,67.7,30.08,ENE,68,3.4,7.6,56,0.00,,,0.00,WUHU216HW,2013-06-15 20:00:00,
2013-06-15 16:05:00,84.6,67.7,30.08,ENE,68,3.6,7.6,57,0.00,,,0.00,WUHU216HW,2013-06-15 20:05:00,
2013-06-15 16:10:00,84.8,67.9,30.08,ENE,68,1.6,4.3,57,0.00,,,0.00,WUHU216HW,2013-06-15 20:10:00,
2013-06-15 16:15:00,85.7,68.7,30.08,NE,45,3.1,4.7,57,0.00,,,0.00,WUHU216HW,2013-06-15 20:15:00,
2013-06-15 16:20:00,86.2,68.7,30.08,East,90,2.2,5.1,56,0.00,,,0.00,WUHU216HW,2013-06-15 20:20:00,
2013-06-15 16:25:00,86.2,68.7,30.08,South,180,2.5,5.1,56,0.00,,,0.00,WUHU216HW,2013-06-15 20:25:00,
2013-06-15 16:30:00,86.0,68.5,30.08,ESE,113,2.5,5.6,56,0.00,,,0.00,WUHU216HW,2013-06-15 20:30:00,
2013-06-15 16:35:00,85.9,68.9,30.08,SE,135,1.6,5.6,57,0.00,,,0.00,WUHU216HW,2013-06-15 20:35:00,
2013-06-15 16:40:00,85.7,68.1,30.08,ESE,113,1.8,6.5,56,0.00,,,0.00,WUHU216HW,2013-06-15 20:40:00,
2013-06-15 16:45:00,85.7,68.7,30.08,East,90,1.1,6.5,57,0.00,,,0.00,WUHU216HW,2013-06-15 20:45:00,
2013-06-15 16:50:00,85.5,67.5,30.08,ESE,113,2.2,6.9,55,0.00,,,0.00,WUHU216HW,2013-06-15 20:50:00,
2013-06-15 16:55:00,85.3,68.3,30.07,ESE,113,1.8,6.9,57,0.00,,,0.00,WUHU216HW,2013-06-15 20:55:00,
2013-06-15 17:00:00,85.0,68.1,30.08,ENE,68,2.2,8.3,57,0.00,,,0.00,WUHU216HW,2013-06-15 21:00:00,
2013-06-15 17:05:00,85.0,67.5,30.07,SE,135,2.2,8.3,56,0.00,,,0.00,WUHU216HW,2013-06-15 21:05:00,
2013-06-15 17:10:00,85.0,68.6,30.07,SE,135,0.2,8.5,58,0.00,,,0.00,WUHU216HW,2013-06-15 21:10:00,
2013-06-15 17:15:00,85.0,68.6,30.07,SSE,158,2.5,8.5,58,0.00,,,0.00,WUHU216HW,2013-06-15 21:15:00,
2013-06-15 17:20:00,85.0,68.6,30.08,SE,135,2.5,6.7,58,0.00,,,0.00,WUHU216HW,2013-06-15 21:20:00,
2013-06-15 17:25:00,84.6,68.8,30.08,East,90,0.7,5.4,59,0.00,,,0.00,WUHU216HW,2013-06-15 21:25:00,
2013-06-15 17:30:00,84.4,68.6,30.08,East,90,2.0,5.4,59,0.00,,,0.00,WUHU216HW,2013-06-15 21:30:00,
2013-06-15 17:35:00,84.6,68.8,30.07,SE,135,3.4,5.4,59,0.00,,,0.00,WUHU216HW,2013-06-15 21:35:00,
2013-06-15 17:40:00,84.4,68.0,30.07,SSE,158,1.8,5.4,58,0.00,,,0.00,WUHU216HW,2013-06-15 21:40:00,
2013-06-15 17:45:00,84.4,68.6,30.07,SE,135,1.8,3.4,59,0.00,,,0.00,WUHU216HW,2013-06-15 21:45:00,
2013-06-15 17:50:00,84.2,68.9,30.07,SE,135,1.1,5.4,60,0.00,,,0.00,WUHU216HW,2013-06-15 21:50:00,
2013-06-15 17:55:00,84.2,68.9,30.07,SSW,203,7.8,7.8,60,0.00,,,0.00,WUHU216HW,2013-06-15 21:55:00,
2013-06-15 18:00:00,84.1,68.8,30.07,East,90,2.7,7.8,60,0.00,,,0.00,WUHU216HW,2013-06-15 22:00:00,
2013-06-15 18:05:00,83.9,68.6,30.07,SE,135,4.0,7.8,60,0.00,,,0.00,WUHU216HW,2013-06-15 22:05:00,
2013-06-15 18:10:00,83.7,68.4,30.07,NE,45,2.2,4.0,60,0.00,,,0.00,WUHU216HW,2013-06-15 22:10:00,
2013-06-15 18:15:00,83.5,68.7,30.07,ENE,68,1.8,3.8,61,0.00,,,0.00,WUHU216HW,2013-06-15 22:15:00,
2013-06-15 18:20:00,83.5,69.1,30.07,East,90,5.1,5.1,62,0.00,,,0.00,WUHU216HW,2013-06-15 22:20:00,
2013-06-15 18:25:00,83.3,68.5,30.07,East,90,2.2,9.4,61,0.00,,,0.00,WUHU216HW,2013-06-15 22:25:00,
2013-06-15 18:30:00,83.2,68.3,30.07,ESE,113,1.3,9.4,61,0.00,,,0.00,WUHU216HW,2013-06-15 22:30:00,
2013-06-15 18:35:00,82.6,67.8,30.07,South,180,3.1,3.1,61,0.00,,,0.00,WUHU216HW,2013-06-15 22:35:00,
2013-06-15 18:40:00,82.4,68.0,30.07,East,90,1.1,4.0,62,0.00,,,0.00,WUHU216HW,2013-06-15 22:40:00,
2013-06-15 18:45:00,82.4,68.0,30.07,SSW,203,3.1,4.0,62,0.00,,,0.00,WUHU216HW,2013-06-15 22:45:00,
2013-06-15 18:50:00,82.4,68.0,30.07,South,180,4.0,6.0,62,0.00,,,0.00,WUHU216HW,2013-06-15 22:50:00,
2013-06-15 18:55:00,82.1,67.7,30.07,ENE,68,0.7,7.6,62,0.00,,,0.00,WUHU216HW,2013-06-15 22:55:00,
2013-06-15 19:00:00,82.1,68.1,30.07,SE,135,1.1,7.6,63,0.00,,,0.00,WUHU216HW,2013-06-15 23:00:00,
2013-06-15 19:05:00,82.1,68.1,30.08,East,90,1.6,3.4,63,0.00,,,0.00,WUHU216HW,2013-06-15 23:05:00,
2013-06-15 19:10:00,81.9,68.5,30.08,East,90,1.1,3.4,64,0.00,,,0.00,WUHU216HW,2013-06-15 23:10:00,
2013-06-15 19:15:00,81.7,68.3,30.07,East,90,2.5,4.0,64,0.00,,,0.00,WUHU216HW,2013-06-15 23:15:00,
2013-06-15 19:20:00,81.7,68.8,30.08,East,90,1.1,4.0,65,0.00,,,0.00,WUHU216HW,2013-06-15 23:20:00,
2013-06-15 19:25:00,81.5,68.1,30.08,ENE,68,1.6,3.1,64,0.00,,,0.00,WUHU216HW,2013-06-15 23:25:00,
2013-06-15 19:30:00,81.4,68.4,30.08,ESE,113,2.2,6.9,65,0.00,,,0.00,WUHU216HW,2013-06-15 23:30:00,
2013-06-15 19:35:00,81.2,68.2,30.08,East,90,0.9,6.9,65,0.00,,,0.00,WUHU216HW,2013-06-15 23:35:00,
2013-06-15 19:40:00,81.0,68.1,30.08,South,180,2.5,3.4,65,0.00,,,0.00,WUHU216HW,2013-06-15 23:40:00,
2013-06-15 19:45:00,80.8,68.4,30.08,ESE,113,1.1,3.4,66,0.00,,,0.00,WUHU216HW,2013-06-15 23:45:00,
2013-06-15 19:50:00,80.6,68.2,30.08,SE,135,3.4,4.0,66,0.00,,,0.00,WUHU216HW,2013-06-15 23:50:00,
2013-06-15 19:55:00,80.3,68.3,30.08,SSE,158,1.8,4.0,67,0.00,,,0.00,WUHU216HW,2013-06-15 23:55:00,
2013-06-15 20:00:00,80.3,68.3,30.08,SE,135,1.6,3.1,67,0.00,,,0.00,WUHU216HW,2013-06-16 00:00:00,
2013-06-15 20:05:00,80.1,68.6,30.08,SE,135,2.5,3.1,68,0.00,,,0.00,WUHU216HW,2013-06-16 00:05:00,
2013-06-15 20:10:00,79.9,68.0,30.08,East,90,0.2,3.1,67,0.00,,,0.00,WUHU216HW,2013-06-16 00:10:00,
2013-06-15 20:15:00,79.7,67.8,30.08,SE,135,0.2,2.5,67,0.00,,,0.00,WUHU216HW,2013-06-16 00:15:00,
2013-06-15 20:20:00,79.6,68.0,30.09,ESE,113,0.2,1.3,68,0.00,,,0.00,WUHU216HW,2013-06-16 00:20:00,
2013-06-15 20:25:00,79.4,68.3,30.09,East,90,0.2,4.0,69,0.00,,,0.00,WUHU216HW,2013-06-16 00:25:00,
2013-06-15 20:30:00,79.0,68.0,30.09,West,270,1.3,4.0,69,0.00,,,0.00,WUHU216HW,2013-06-16 00:30:00,
2013-06-15 20:35:00,78.8,67.8,30.09,East,90,1.1,1.3,69,0.00,,,0.00,WUHU216HW,2013-06-16 00:35:00,
2013-06-15 20:40:00,78.8,68.2,30.09,SE,135,0.4,1.3,70,0.00,,,0.00,WUHU216HW,2013-06-16 00:40:00,
2013-06-15 20:45:00,78.7,68.0,30.09,ENE,68,0.2,1.1,70,0.00,,,0.00,WUHU216HW,2013-06-16 00:45:00,
2013-06-15 20:50:00,78.5,67.9,30.09,East,90,0.4,1.1,70,0.00,,,0.00,WUHU216HW,2013-06-16 00:50:00,
2013-06-15 20:55:00,78.3,67.8,30.09,ENE,68,0.7,0.9,70,0.00,,,0.00,WUHU216HW,2013-06-16 00:55:00,
2013-06-15 21:00:00,78.1,67.6,30.09,NE,45,0.7,1.1,70,0.00,,,0.00,WUHU216HW,2013-06-16 01:00:00,
2013-06-15 21:05:00,78.1,68.0,30.09,East,90,0.0,1.3,71,0.00,,,0.00,WUHU216HW,2013-06-16 01:05:00,
2013-06-15 21:10:00,77.8,67.6,30.09,East,90,0.0,1.3,71,0.00,,,0.00,WUHU216HW,2013-06-16 01:10:00,
2013-06-15 21:15:00,77.8,67.6,30.09,East,90,0.0,0.7,71,0.00,,,0.00,WUHU216HW,2013-06-16 01:15:00,
2013-06-15 21:20:00,77.4,67.7,30.09,East,90,0.0,0.9,72,0.00,,,0.00,WUHU216HW,2013-06-16 01:20:00,
2013-06-15 21:25:00,77.4,67.7,30.09,East,90,0.0,0.9,72,0.00,,,0.00,WUHU216HW,2013-06-16 01:25:00,
2013-06-15 21:30:00,77.2,67.5,30.09,East,90,0.0,0.9,72,0.00,,,0.00,WUHU216HW,2013-06-16 01:30:00,
2013-06-15 21:35:00,77.0,67.8,30.09,East,90,0.0,0.4,73,0.00,,,0.00,WUHU216HW,2013-06-16 01:35:00,
2013-06-15 21:40:00,77.0,67.8,30.10,East,90,0.2,0.7,73,0.00,,,0.00,WUHU216HW,2013-06-16 01:40:00,
2013-06-15 21:45:00,76.7,67.4,30.10,East,90,0.0,0.9,73,0.00,,,0.00,WUHU216HW,2013-06-16 01:45:00,
2013-06-15 21:50:00,76.7,67.8,30.10,East,90,0.0,0.9,74,0.00,,,0.00,WUHU216HW,2013-06-16 01:50:00,
2013-06-15 21:55:00,76.5,67.6,30.10,SSE,158,0.0,0.7,74,0.00,,,0.00,WUHU216HW,2013-06-16 01:55:00,
2013-06-15 22:00:00,76.3,67.4,30.10,SE,135,0.0,0.7,74,0.00,,,0.00,WUHU216HW,2013-06-16 02:00:00,
2013-06-15 22:05:00,76.3,67.8,30.10,SE,135,0.0,1.1,75,0.00,,,0.00,WUHU216HW,2013-06-16 02:05:00,
2013-06-15 22:10:00,76.1,67.7,30.10,East,90,0.0,1.1,75,0.00,,,0.00,WUHU216HW,2013-06-16 02:10:00,
2013-06-15 22:15:00,76.0,67.5,30.10,East,90,0.0,0.9,75,0.00,,,0.00,WUHU216HW,2013-06-16 02:15:00,
2013-06-15 22:20:00,76.0,67.5,30.11,East,90,0.0,0.4,75,0.00,,,0.00,WUHU216HW,2013-06-16 02:20:00,
2013-06-15 22:25:00,75.6,67.2,30.11,East,90,0.4,0.7,75,0.00,,,0.00,WUHU216HW,2013-06-16 02:25:00,
2013-06-15 22:30:00,75.6,67.5,30.11,ENE,68,0.9,0.9,76,0.00,,,0.00,WUHU216HW,2013-06-16 02:30:00,
2013-06-15 22:35:00,75.4,67.3,30.11,NE,45,0.0,0.9,76,0.00,,,0.00,WUHU216HW,2013-06-16 02:35:00,
2013-06-15 22:40:00,75.2,67.1,30.11,ENE,68,0.4,0.9,76,0.00,,,0.00,WUHU216HW,2013-06-16 02:40:00,
2013-06-15 22:45:00,75.2,67.6,30.11,ENE,68,0.0,0.7,77,0.00,,,0.00,WUHU216HW,2013-06-16 02:45:00,
2013-06-15 22:50:00,74.9,67.2,30.11,ENE,68,0.0,0.4,77,0.00,,,0.00,WUHU216HW,2013-06-16 02:50:00,
2013-06-15 22:55:00,74.9,67.6,30.11,ENE,68,0.0,0.0,78,0.00,,,0.00,WUHU216HW,2013-06-16 02:55:00,
2013-06-15 23:00:00,74.7,67.4,30.11,ENE,68,0.0,0.0,78,0.00,,,0.00,WUHU216HW,2013-06-16 03:00:00,
2013-06-15 23:05:00,74.5,67.2,30.11,NE,45,0.0,1.1,78,0.00,,,0.00,WUHU216HW,2013-06-16 03:05:00,
2013-06-15 23:10:00,74.3,67.1,30.11,NE,45,0.2,1.1,78,0.00,,,0.00,WUHU216HW,2013-06-16 03:10:00,
2013-06-15 23:15:00,74.3,67.5,30.11,NE,45,0.0,0.4,79,0.00,,,0.00,WUHU216HW,2013-06-16 03:15:00,
2013-06-15 23:20:00,74.2,67.3,30.11,NE,45,0.0,0.0,79,0.00,,,0.00,WUHU216HW,2013-06-16 03:20:00,
2013-06-15 23:25:00,74.2,67.3,30.11,NE,45,0.0,0.0,79,0.00,,,0.00,WUHU216HW,2013-06-16 03:25:00,
2013-06-15 23:30:00,74.0,67.2,30.11,NE,45,0.0,0.0,79,0.00,,,0.00,WUHU216HW,2013-06-16 03:30:00,
2013-06-15 23:35:00,73.8,67.3,30.11,NE,45,0.9,0.9,80,0.00,,,0.00,WUHU216HW,2013-06-16 03:35:00,
2013-06-15 23:40:00,73.6,67.1,30.11,NE,45,0.0,1.1,80,0.00,,,0.00,WUHU216HW,2013-06-16 03:40:00,
2013-06-15 23:45:00,73.3,67.2,30.11,NE,45,0.0,1.1,81,0.00,,,0.00,WUHU216HW,2013-06-16 03:45:00,
2013-06-15 23:50:00,73.1,67.0,30.11,North,0,0.0,0.0,81,0.00,,,0.00,WUHU216HW,2013-06-16 03:50:00,
2013-06-15 23:55:00,73.1,67.0,30.11,North,0,0.0,0.0,81,0.00,,,0.00,WUHU216HW,2013-06-16 03:55:00,